Time,TemperatureF,DewpointF,PressureIn,WindDirection,WindDirectionDegrees,WindSpeedMPH,WindSpeedGustMPH,Humidity,HourlyPrecipIn,Conditions,Clouds,dailyrainin,SoftwareType,DateUTC
2013-07-24 00:02:00,80.0,53.0,-100.00,WNW,300,7.0,13.0,39,-99.99,,,-99.99,,2013-07-24 07:02:00,
2013-07-24 00:10:00,76.0,52.0,-100.00,WNW,295,6.0,10.0,43,-99.99,,,-99.99,,2013-07-24 07:10:00,
2013-07-24 02:02:00,68.0,51.0,-100.00,NNW,335,3.0,7.0,54,-99.99,,,-99.99,,2013-07-24 09:02:00,
2013-07-24 02:10:00,68.0,52.0,-100.00,WNW,300,9.0,15.0,56,-99.99,,,-99.99,,2013-07-24 09:10:00,
2013-07-24 02:12:00,68.0,51.0,-100.00,NNW,335,3.0,7.0,54,-99.99,,,-99.99,,2013-07-24 09:12:00,
2013-07-24 04:02:00,65.0,50.0,-100.00,NW,325,6.0,10.0,58,-99.99,,,-99.99,,2013-07-24 11:02:00,
2013-07-24 04:12:00,65.0,50.0,-100.00,NW,325,6.0,10.0,58,-99.99,,,-99.99,,2013-07-24 11:12:00,
2013-07-24 05:10:00,63.0,49.0,-100.00,WNW,290,10.0,15.0,60,-99.99,,,-99.99,,2013-07-24 12:10:00,
2013-07-24 07:10:00,64.0,49.0,-100.00,NW,305,5.0,14.0,58,-99.99,,,-99.99,,2013-07-24 14:10:00,
2013-07-24 07:12:00,62.0,48.0,-100.00,NW,320,6.0,13.0,60,-99.99,,,-99.99,,2013-07-24 14:12:00,
2013-07-24 09:12:00,70.0,54.0,-100.00,NNW,340,5.0,7.0,56,-99.99,,,-99.99,,2013-07-24 16:12:00,
2013-07-24 09:20:00,80.0,56.0,-100.00,WNW,285,6.0,10.0,43,-99.99,,,-99.99,,2013-07-24 16:20:00,
2013-07-24 10:10:00,85.0,55.0,-100.00,WNW,285,7.0,13.0,35,-99.99,,,-99.99,,2013-07-24 17:10:00,
2013-07-24 10:12:00,80.0,56.0,-100.00,WNW,285,6.0,10.0,43,-99.99,,,-99.99,,2013-07-24 17:12:00,
2013-07-24 12:12:00,91.0,56.0,-100.00,WNW,295,3.0,7.0,30,-99.99,,,-99.99,,2013-07-24 19:12:00,
2013-07-24 20:10:00,88.0,50.0,-100.00,WNW,300,6.0,10.0,27,-99.99,,,-99.99,,2013-07-25 03:10:00,
2013-07-24 22:12:00,84.0,52.0,-100.00,NW,305,7.0,12.0,33,-99.99,,,-99.99,,2013-07-25 05:12:00,
2013-07-24 22:20:00,82.0,53.0,-100.00,West,265,6.0,13.0,36,-99.99,,,-99.99,,2013-07-25 05:20:00,
2013-07-24 23:10:00,76.0,52.0,-100.00,North,360,3.0,10.0,43,-99.99,,,-99.99,,2013-07-25 06:10:00,
2013-07-24 23:12:00,82.0,53.0,-100.00,West,265,6.0,13.0,36,-99.99,,,-99.99,,2013-07-25 06:12:00,